FW9619 Weather Reports


time (UTC)temp
C
wind
direction
speed
KPH
gust
KPH
rain 1hr
cm
rain 24hr
cm
rain mn
cm
humidity
%
barometer
mb
20260510154555 18 343 11.3 24.1 0.00 0.00 0.00 42 1020.9
20260510153046 18 30 11.3 27.4 0.00 0.00 0.00 44 1021.0
20260510151539 17 31 14.5 25.7 0.00 0.00 0.00 45 1021.3
20260510150038 17 38 16.1 29.0 0.00 0.00 0.00 47 1021.4
20260510144551 17 21 12.9 27.4 0.00 0.00 0.00 52 1021.3
20260510143034 17 5 14.5 27.4 0.00 0.00 0.00 53 1021.2
20260510141541 16 25 12.9 20.9 0.00 0.00 0.00 55 1021.1
20260510140041 16 346 6.4 19.3 0.00 0.00 0.00 58 1020.6
20260510134535 16 35 6.4 17.7 0.00 0.00 0.00 60 1020.4
20260510133035 16 36 6.4 20.9 0.00 0.00 0.00 61 1020.0
20260510131537 15 49 9.7 19.3 0.00 0.00 0.00 66 1020.1
20260510130037 15 48 14.5 22.5 0.00 0.00 0.00 68 1019.7
20260510124543 15 340 6.4 17.7 0.00 0.00 0.00 73 1019.5
20260510123039 14 340 6.4 14.5 0.00 0.00 0.00 77 1019.2
20260510121535 13 15 8.0 17.7 0.00 0.00 0.00 83 1019.2
20260510120037 13 43 4.8 14.5 0.00 0.00 0.00 90 1018.7
20260510114538 12 34 3.2 9.7 0.00 0.00 0.00 92 1018.4
20260510113038 12 29 0.0 4.8 0.00 0.00 0.00 92 1018.1
20260510111545 12 28 0.0 4.8 0.00 0.00 0.00 92 1018.0
20260510110038 12 28 1.6 4.8 0.00 0.00 0.00 92 1018.1
20260510104552 12 0 0.0 1.6 0.00 0.00 0.00 91 1018.0
20260510103039 12 0 0.0 4.8 0.00 0.00 0.00 91 1017.7
20260510101541 12 0 1.6 4.8 0.00 0.00 0.00 91 1017.4
20260510100050 12 0 0.0 0.0 0.00 0.00 0.00 91 1017.1
20260510094537 12 28 1.6 3.2 0.00 0.00 0.00 91 1017.1
20260510093044 12 0 0.0 4.8 0.00 0.00 0.00 91 1016.8
20260510091539 12 28 3.2 4.8 0.00 0.00 0.00 90 1016.5
20260510090042 13 0 0.0 4.8 0.00 0.00 0.00 90 1016.1
20260510084553 13 0 0.0 1.6 0.00 0.00 0.00 90 1016.2
20260510083046 13 0 0.0 1.6 0.00 0.00 0.00 90 1016.0
20260510081537 13 0 0.0 3.2 0.00 0.00 0.00 90 1015.8
20260510080037 13 22 0.0 3.2 0.00 0.00 0.00 89 1015.5
20260510074537 13 22 0.0 3.2 0.00 0.00 0.00 89 1015.4
20260510073048 13 0 0.0 1.6 0.00 0.00 0.00 89 1015.4
20260510071539 13 0 0.0 1.6 0.00 0.00 0.00 88 1015.5
20260510070039 13 0 0.0 3.2 0.00 0.00 0.00 88 1015.5
20260510064538 13 0 0.0 0.0 0.00 0.00 0.00 88 1015.3
20260510063035 14 0 0.0 0.0 0.00 0.00 0.00 87 1015.3
20260510061549 14 0 0.0 1.6 0.00 0.00 0.00 87 1015.2
20260510060044 14 0 0.0 3.2 0.00 0.00 0.00 87 1015.0
20260510054539 15 76 0.0 3.2 0.00 0.00 0.00 87 1015.1
20260510053036 15 0 0.0 0.0 0.00 0.00 0.00 87 1015.3
20260510051541 15 0 0.0 0.0 0.00 0.00 0.00 86 1015.2
20260510050039 15 0 0.0 0.0 0.00 0.00 0.00 85 1015.1
20260510044536 15 0 0.0 4.8 0.00 0.00 0.00 84 1014.7
20260510043042 15 0 0.0 3.2 0.00 0.00 0.00 84 1014.7
20260510041538 15 0 0.0 3.2 0.00 0.00 0.00 84 1014.5
20260510040039 15 0 0.0 12.9 0.00 0.00 0.00 84 1014.3
20260510034535 15 71 9.7 14.5 0.00 0.00 0.00 85 1014.2
20260510033037 15 0 0.0 0.0 0.00 0.00 0.00 85 1013.3
20260510031549 16 0 0.0 0.0 0.00 0.00 0.00 83 1013.2
20260510030038 16 0 0.0 0.0 0.00 0.00 0.00 82 1013.1
20260510024541 16 0 0.0 0.0 0.00 0.00 0.00 81 1013.0
20260510023041 17 0 0.0 0.0 0.00 0.00 0.00 79 1012.8
20260510021537 17 0 0.0 0.0 0.00 0.00 0.00 77 1012.3
20260510020039 18 0 0.0 0.0 0.00 0.00 0.00 74 1011.8
20260510014538 19 0 0.0 0.0 0.00 0.00 0.00 73 1011.8
20260510013038 20 0 0.0 0.0 0.00 0.00 0.00 70 1011.6
20260510011537 21 0 0.0 0.0 0.00 0.00 0.00 67 1011.4
20260510010034 22 0 0.0 1.6 0.00 0.00 0.00 60 1011.2
20260510004542 23 0 0.0 1.6 0.00 0.00 0.00 58 1011.1
20260510003039 24 0 0.0 3.2 0.00 0.00 0.00 56 1010.9
20260510001538 25 257 0.0 1.6 0.00 0.00 0.00 52 1010.9
20260510000036 26 0 0.0 1.6 0.00 0.00 0.00 47 1011.0
20260509234538 27 0 0.0 3.2 0.00 0.00 0.00 43 1011.0
20260509233036 27 257 0.0 3.2 0.00 0.00 0.00 38 1010.9
20260509231539 28 0 0.0 4.8 0.00 0.00 0.00 38 1010.7
20260509230035 28 234 1.6 11.3 0.00 0.00 0.00 31 1010.7
20260509224539 28 171 3.2 12.9 0.00 0.00 0.00 34 1010.6
20260509223039 28 221 6.4 14.5 0.00 0.00 0.00 31 1010.8
20260509221542 28 227 4.8 12.9 0.00 0.00 0.00 32 1010.8
20260509220041 29 213 4.8 17.7 0.00 0.00 0.00 31 1010.8
20260509214539 29 0 4.8 19.3 0.00 0.00 0.00 31 1010.8
20260509213038 30 0 3.2 6.4 0.00 0.00 0.00 29 1010.8
20260509211545 28 213 8.0 16.1 0.00 0.00 0.00 31 1010.9
20260509210039 30 186 3.2 12.9 0.00 0.00 0.00 32 1011.0
20260509204534 29 309 1.6 19.3 0.00 0.00 0.00 31 1011.2
20260509203040 29 215 6.4 22.5 0.00 0.00 0.00 35 1011.3
20260509201537 28 227 1.6 19.3 0.00 0.00 0.00 30 1011.5
20260509200044 28 240 8.0 24.1 0.00 0.00 0.00 32 1011.6
20260509194538 28 279 8.0 19.3 0.00 0.00 0.00 33 1011.5
20260509193037 28 254 9.7 24.1 0.00 0.00 0.00 34 1011.6
20260509191537 29 261 6.4 19.3 0.00 0.00 0.00 35 1011.6
20260509190042 28 137 4.8 24.1 0.00 0.00 0.00 38 1011.8
20260509184549 28 309 8.0 19.3 0.00 0.00 0.00 36 1011.7
20260509183039 28 271 8.0 19.3 0.00 0.00 0.00 35 1011.7
20260509181545 28 236 6.4 16.1 0.00 0.00 0.00 38 1011.8
20260509180034 28 232 4.8 22.5 0.00 0.00 0.00 39 1011.9
20260509174540 28 276 4.8 14.5 0.00 0.00 0.00 38 1012.0
20260509173042 27 205 6.4 19.3 0.00 0.00 0.00 38 1012.2
20260509171537 27 290 9.7 20.9 0.00 0.00 0.00 39 1012.3
20260509170038 26 200 4.8 17.7 0.00 0.00 0.00 43 1012.4
20260509164535 25 256 8.0 19.3 0.00 0.00 0.00 43 1012.5
20260509163058 25 263 6.4 16.1 0.00 0.00 0.00 46 1012.6
20260509161535 25 265 1.6 22.5 0.00 0.00 0.00 53 1012.6
20260509160038 23 187 3.2 14.5 0.00 0.00 0.00 56 1012.5